Location: Newark
(48.5156°N, 1.8989°W)
Time: 10:09:42
(UTC+00:00)

Transit 4A - Pass Details

Date: 26 November 2019
Orbit: 870 x 975 km, 66.8° (Epoch: 13 December)

Event Time Altitude Azimuth Distance (km) Brightness Sun altitude
Exits shadow 06:24:54 13° 297° (WNW) 2,300 9.3 -10.7°
Maximum altitude 06:28:35 24° 252° (WSW) 1,733 8.9 -10.1°
Drops below altitude 10° 06:33:07 10° 201° (SSW) 2,511 10.2 -9.4°
Sets 06:36:00 0° 187° (S) 3,443 11.1 -9.0°
